FW8607 Weather Reports


time (UTC)temp
F
wind
direction
speed
knots
gust
knots
rain 1hr
in
rain 24hr
in
rain mn
in
humidity
%
barometer
mb
20260901130019 63 135 1.7 4.3 0.00 0.00 0.00 93 1013.7
20260901123019 62 135 0.9 3.5 0.00 0.00 0.00 93 1013.7
20260901120019 64 0.0 0.0 0.00 0.00 0.00 93 1014.0
20260901113018 64 0.0 0.0 0.00 0.00 0.00 93 1013.7
20260901110018 63 0.0 0.9 0.00 0.00 0.00 92 1013.4
20260901103018 63 0.0 2.6 0.00 0.00 0.00 92 1013.5
20260901100018 63 135 0.9 2.6 0.00 0.00 0.00 92 1013.8
20260901093019 64 0.0 1.7 0.00 0.00 0.00 91 1013.8
20260901090018 64 0.0 0.9 0.00 0.00 0.00 91 1013.8
20260901083018 65 0.0 0.9 0.00 0.00 0.00 91 1013.9
20260901080018 65 135 0.9 2.6 0.00 0.00 0.00 90 1013.9
20260901073018 65 0.0 1.7 0.00 0.00 0.00 90 1013.9
20260901070018 65 270 0.9 2.6 0.00 0.00 0.00 89 1014.0
20260901063018 66 270 1.7 3.5 0.00 0.00 0.00 89 1014.2
20260901060018 67 270 1.7 3.5 0.00 0.00 0.00 87 1014.1
20260901053018 67 270 0.9 2.6 0.00 0.00 0.00 87 1013.8
20260901050018 68 270 1.7 2.6 0.00 0.00 0.00 86 1013.5
20260901043038 68 248 1.7 3.5 0.00 0.00 0.00 85 1013.4
20260901040018 69 248 2.6 4.3 0.00 0.00 0.00 83 1013.5
20260901033038 70 270 2.6 5.2 0.00 0.00 0.00 82 1012.8
20260901030017 71 248 5.2 7.8 0.00 0.00 0.00 79 1012.6
20260901023038 73 248 5.2 8.7 0.00 0.00 0.00 74 1012.3
20260901020017 76 248 6.1 10.4 0.00 0.00 0.00 68 1011.9
20260901013017 78 270 6.1 12.2 0.00 0.00 0.00 64 1011.9
20260901010019 79 248 7.0 13.0 0.00 0.00 0.00 60 1012.1
20260901003020 81 248 6.1 10.4 0.00 0.00 0.00 56 1012.0
20260901000017 82 248 7.0 13.0 0.00 0.00 0.00 54 1012.3
20260831233019 82 248 7.0 13.0 0.00 0.00 0.00 53 1012.3
20260831230019 82 248 8.7 14.8 0.00 0.00 0.00 53 1012.5
20260831223019 83 248 8.7 15.6 0.00 0.00 0.00 52 1012.8
20260831220019 84 248 8.7 16.5 0.00 0.00 0.00 52 1012.9
20260831213019 84 248 8.7 15.6 0.00 0.00 0.00 49 1012.8
20260831210019 84 248 8.7 14.8 0.00 0.00 0.00 49 1013.2
20260831203019 85 270 7.8 12.2 0.00 0.00 0.00 47 1013.4
20260831200019 84 248 8.7 13.9 0.00 0.00 0.00 47 1013.4
20260831193018 84 248 7.8 14.8 0.00 0.00 0.00 50 1013.6
20260831190038 84 248 7.8 13.0 0.00 0.00 0.00 52 1013.6
20260831183018 84 270 6.1 11.3 0.00 0.00 0.00 50 1013.6
20260831180038 82 270 5.2 10.4 0.00 0.00 0.00 51 1013.6
20260831173018 80 270 5.2 10.4 0.00 0.00 0.00 50 1013.6
20260831170018 78 270 4.3 8.7 0.00 0.00 0.00 61 1013.4
20260831163018 75 293 0.9 5.2 0.00 0.00 0.00 71 1013.3
20260831160018 73 68 0.9 3.5 0.00 0.00 0.00 74 1013.5
20260831153018 69 90 1.7 6.1 0.00 0.00 0.00 88 1013.1
20260831150018 67 135 1.7 3.5 0.00 0.00 0.00 94 1013.1
20260831143038 66 180 0.9 4.3 0.00 0.00 0.00 95 1013.0
20260831140038 65 158 1.7 4.3 0.00 0.00 0.00 95 1012.6
20260831133018 65 135 1.7 4.3 0.00 0.00 0.00 95 1012.3